Home   Weather   Bielsko-Biała   Past weeks

Flag for Poland Past Weather in Bielsko-Biała, Poland — Yesterday and Last 2 Weeks

Now
44 °F

Overcast.


Feels Like: 41 °F
Forecast: 24 / 39 °F
Wind: 6 mph from Southwest

Location: Katowice

Current Time: Dec 11, 2016 at 9:24:43 am

Latest Report: Dec 11, 2016 at 8:00 am


Visibility: 6 mi

Pressure: 29.91 "Hg

Humidity: 84%

Dew Point: 39 °F

Location of Bielsko-BiałaLocation

Past Weather in Bielsko-Biała — Graph

°F

Bielsko-Biała Temperature Yesterday

Maximum temperature yesterday: 48 °F (at 1:00 pm)
Minimum temperature yesterday: 40 °F (at 1:00 am)
Average temperature yesterday: 45 °F

High & Low Weather Summary for the Past Weeks

 TemperatureHumidityPressure
High48 °F (Dec 10, 1:00 pm)97% (Nov 26, 8:00 am)30.69 "Hg (Nov 26, 8:00 am)
Low17 °F (Dec 5, 6:00 am)41% (Dec 5, 1:00 pm)29.50 "Hg (Dec 2, 4:00 am)
Average34 °F82%30.23 "Hg
* Reported Nov 26 8:00 am — Dec 11 8:00 am, Bielsko-Biała, Weather by CustomWeather, © 2016

Note: Actual official high and low records may vary slightly from our data, if they occured in-between our weather recording intervals... More about our weather records

Advertising

Bielsko-Biała Weather History for the Previous 24 Hours

Scroll right to see more
 ConditionsComfort  
Time TempWeatherWind HumidityBarometerVisibility
8:00 am
Sun, Dec 11
44 °FOvercast.6 mph84%29.91 "Hg6 mi
7:00 am43 °FOvercast.5 mph92%29.94 "Hg4 mi
6:00 am43 °FLight rain. Low clouds.5 mph94%29.97 "Hg1 mi
5:00 am43 °FLight rain. Low clouds.3 mph93%30.00 "Hg1 mi
4:00 am45 °FFog.3 mph85%30.03 "Hg5 mi
3:00 am45 °FFog.3 mph84%30.05 "Hg5 mi
2:00 am45 °FFog.3 mph84%30.06 "Hg4 mi
1:00 am46 °FOvercast.2 mph82%30.07 "Hg6 mi
12:00 am46 °FOvercast.3 mph81%30.08 "Hg6 mi
11:00 pm
Sat, Dec 10
46 °FOvercast.5 mph81%30.09 "Hg6 mi
10:00 pm46 °FOvercast.5 mph82%30.09 "Hg6 mi
9:00 pm46 °FOvercast.6 mph82%30.09 "Hg6 mi
8:00 pm46 °FOvercast.5 mph81%30.10 "Hg6 mi
7:00 pm46 °FOvercast.6 mph84%30.10 "Hg6 mi
6:00 pm45 °FOvercast.7 mph84%30.10 "Hg6 mi
5:00 pm46 °FOvercast.7 mph83%30.09 "Hg6 mi
4:00 pm46 °FOvercast.7 mph82%30.10 "Hg6 mi
3:00 pm47 °FOvercast.7 mph79%30.12 "Hg6 mi
2:00 pm47 °FOvercast.6 mph77%30.12 "Hg6 mi
1:00 pm48 °FOvercast.7 mph77%30.13 "Hg6 mi
12:00 pm46 °FOvercast.7 mph80%30.14 "Hg6 mi
11:00 am46 °FOvercast.6 mph81%30.16 "Hg6 mi
10:00 am45 °FOvercast.7 mph84%30.16 "Hg6 mi
9:00 am43 °FOvercast.7 mph86%30.18 "Hg6 mi
Weather by CustomWeather, © 2016

See weather overviewHow to use our weather pages